Weather History for Owensboro, KY

Change the Weather History Date:

Wednesday, September 25, 2013

  Actual Average Record
Temperature  
Mean Temperature 72 °F -  
Max Temperature 79 °F 77 °F 91 °F (1973)
Min Temperature 64 °F 54 °F 34 °F (1965)
Cooling Degree Days 6    
Growing Degree Days 22 (Base 50)    
Moisture  
Dew Point 65 °F    
Average Humidity 83    
Maximum Humidity 100    
Minimum Humidity 54    
Precipitation  
Precipitation 0.00 in - - ()
Sea Level Pressure  
Sea Level Pressure 29.85 in    
Wind  
Wind Speed 2 mph (East)    
Max Wind Speed 9 mph    
Max Gust Speed -    
Visibility 8 miles    
Events Rain    
Averages and records for this station are not official NWS values.
T = Trace of Precipitation, MM = Missing Value Source: NWS Daily Summary

Daily Weather History Graph

Daily Weather History Graph

Search for Another Location

Airport:

Trip Planner

Search our weather history database for the weather conditions in past years. The results will help you decide how hot, cold, wet, or windy it might be!

Date:

Astronomy

Sep. 25, 2013 Rise Set
Actual Time 6:39 AM CDT 6:40 PM CDT
Civil Twilight 6:13 AM CDT 7:06 PM CDT
Nautical Twilight 5:42 AM CDT 7:37 PM CDT
Astronomical Twilight 5:11 AM CDT 8:07 PM CDT
Moon 10:52 PM CDT (9/25) 12:38 PM CDT (9/25)
Length of Visible Light 12h 53m
Length of Day
12h 01m
Waning Gibbous, 64% of the Moon is Illuminated
Sep 25
Waning Gibbous
Sep 26
Last Quarter
Oct 4
New
Oct 11
First Quarter
Oct 18
Full

Hourly Weather History & Observations

Time (CDT) Temp. Dew Point Humidity Pressure Visibility Wind Dir Wind Speed Gust Speed Precip Events Conditions
12:56 AM 66.9 °F 61.9 °F 84% 29.84 in 10.0 mi Calm Calm - N/A   Mostly Cloudy
1:56 AM 65.8 °F 63.9 °F 93% 29.83 in 10.0 mi Calm Calm - 0.00 in Rain Light Rain
2:56 AM 64.9 °F 64.9 °F 100% 29.82 in 10.0 mi SSE 4.6 mph - 0.00 in   Scattered Clouds
3:56 AM 64.9 °F 64.9 °F 100% 29.83 in 10.0 mi Calm Calm - N/A   Overcast
4:56 AM 64.9 °F 64.9 °F 100% 29.83 in 10.0 mi Calm Calm - N/A   Mostly Cloudy
5:56 AM 64.9 °F 64.9 °F 100% 29.85 in 6.0 mi ESE 5.8 mph - N/A   Mostly Cloudy
6:56 AM 64.9 °F 64.9 °F 100% 29.85 in 4.0 mi ESE 4.6 mph - N/A   Overcast
7:56 AM 66.9 °F 66.9 °F 100% 29.85 in 6.0 mi Calm Calm - N/A   Scattered Clouds
8:43 AM 69.8 °F 66.2 °F 88% 29.87 in 6.0 mi Calm Calm - N/A   Mostly Cloudy
8:56 AM 68.9 °F 66.9 °F 93% 29.87 in 6.0 mi Calm Calm - N/A   Mostly Cloudy
8:58 AM 69.8 °F 66.2 °F 88% 29.88 in 6.0 mi Calm Calm - N/A   Mostly Cloudy
9:47 AM 69.8 °F 66.2 °F 88% 29.88 in 6.0 mi Calm Calm - N/A   Overcast
9:56 AM 70.0 °F 65.8 °F 87% 29.88 in 6.0 mi Calm Calm - N/A   Overcast
10:56 AM 70.9 °F 65.8 °F 84% 29.88 in 8.0 mi Calm Calm - N/A   Overcast
11:56 AM 73.9 °F 65.8 °F 76% 29.87 in 8.0 mi Variable 6.9 mph - N/A   Mostly Cloudy
12:56 PM 77.0 °F 65.8 °F 68% 29.85 in 8.0 mi ESE 6.9 mph - N/A   Mostly Cloudy
1:56 PM 77.9 °F 64.9 °F 64% 29.83 in 10.0 mi East 8.1 mph - N/A   Scattered Clouds
2:56 PM 79.9 °F 63.0 °F 56% 29.83 in 10.0 mi ESE 3.5 mph - N/A   Scattered Clouds
3:56 PM 79.9 °F 61.9 °F 54% 29.82 in 10.0 mi ENE 6.9 mph - N/A   Scattered Clouds
4:56 PM 77.9 °F 64.9 °F 64% 29.83 in 10.0 mi NE 6.9 mph - N/A   Scattered Clouds
5:56 PM 77.0 °F 64.9 °F 66% 29.84 in 10.0 mi ENE 9.2 mph - N/A   Scattered Clouds
6:56 PM 73.9 °F 63.9 °F 71% 29.85 in 10.0 mi ESE 5.8 mph - N/A   Partly Cloudy
7:56 PM 72.9 °F 63.9 °F 73% 29.86 in 10.0 mi ENE 4.6 mph - N/A   Clear
8:56 PM 70.9 °F 64.9 °F 81% 29.87 in 10.0 mi Calm Calm - N/A   Clear
9:56 PM 68.9 °F 63.9 °F 84% 29.88 in 10.0 mi Variable 3.5 mph - N/A   Clear
10:56 PM 68.0 °F 63.9 °F 87% 29.89 in 10.0 mi ENE 4.6 mph - N/A   Clear
11:56 PM 66.9 °F 63.9 °F 90% 29.89 in 10.0 mi Calm Calm - N/A   Clear